Погода в Аттавапискате

Канада     52°55′33″N   82°25′43″W
В апреле 2022 года жителям России запретили посещать сайт meteo.paraplan.net по решению Генеральной прокуратуры. Аудитория сайта уменьшилась в 10 раз. Владельцы сайта не видят смысла в поддержке погодного сервера в таких условиях. Сайт будет закрыт в октябре.
темп.,
°C
ветер,
м/с
пор.,
м/с
влажн.,
%
обл.,
%
осадки,
мм/ч
давл.,
гПа
погр.,
м
4 октября, вт
вт423:00+10с4961100 0.0 1019617
02:00+6ссз2274100 0.0 102041
05:00+4с228466 0.0 102026
08:00+3ссз009051 0.0 102110
11:00+8з125412 0.0 1020400
14:00+13з1232100 0.0 1019743
17:00+12з1234100 0.0 1018785
20:00+7юв2258100 0.0 101816
5 октября, ср
ср523:00+7ююв2272100 0.0 101721
02:00+6юв2385100 0.0 101558
05:00+6вюв3685100 0.0 1013162
08:00+5вюв4992100 2.9 1011437
11:00+4всв61192100 6.9 1009624
14:00+4св5993100 11.4 1009672
17:00+5ссв4895100 0.7 1011790
20:00+5с3895100 1.0 1014975
6 октября, чт
чт623:00+3с51097100 0.2 1016670
02:00+3ссз5987100 0.3 1019709
05:00+2ссз4118384 0.0 1021572
08:00+1ссз4118478 0.0 1023534
11:00+4ссз696572 0.1 10251425
14:00+5с6961100 0.2 10261722
17:00+5с5855100 0.2 10271731
20:00+3с3866100 0.3 1029441
7 октября, пт
пт723:000сз39785 0.0 1029229
02:00−1сз38835 0.0 1029181
05:00−1зсз378511 0.0 1028164
08:00−1з26865 0.0 1027155
11:00+3зюз466225 0.0 1025901
14:00+6юз6846100 0.0 10211338
17:00+6юз61150100 0.0 10171198
20:00+4юз51159100 0.1 10141071
8 октября, сб
сб823:00+2юз51297100 0.6 1012775
02:00+2зюз41097100 0.8 1009815
05:00+2з4997100 0.4 1008783
08:00+2зсз4108776 0.7 1009701
11:00+2зсз5980100 0.0 1010856
14:00+4зсз5984100 0.3 1011923
17:00+4зсз488193 0.3 1011882
20:00+3зсз4893100 0.6 1013476